Location: Mt. Graham
(32.7020°N, 109.8880°W)
Time: 06:32:52
(UTC-07:00)

Hubble Space Telescope - Pass Details

Date: 03 March 2024
Orbit: 513 x 517 km, 28.5° (Epoch: 24 April)

Event Time Altitude Azimuth Distance (km) Brightness Sun altitude
Rises 18:31:00 0° 265° (W) 2,619 7.8 -3.3°
Reaches altitude 10° 18:33:20 10° 258° (WSW) 1,733 5.3 -3.8°
Maximum altitude 18:37:03 38° 189° (S) 799 1.8 -4.6°
Drops below altitude 10° 18:40:48 10° 121° (ESE) 1,736 2.9 -5.4°
Enters shadow 18:42:14 - 115° (ESE) 2,274 3.4 -5.7°
